EWG2DV EDXW-EDDV

Flight info

Callsign EWG2DV
Flight time 0h 38m
Altitude 23000
Route OLDIP1A OLDIP DCT BADOS DCT OMWEG/N0407F240 Y348 HABFU/N0401F230 Z88 NIE
Aircraft A320/M-SDE3FGHIRWY/LB1

Departure

Time 2026-05-08 21:08
Airport Westerland Sylt Airport (EDXW)

Arrival

Time 2026-05-08 21:46
Airport Hannover Airport (EDDV)
Time Latitude Longitude Altitude Speed Heading
2026-05-08 20:41 54.91352 8.33119 58 ft 0 kts 271°
2026-05-08 21:00 54.91352 8.33137 51 ft 4 kts 276°
2026-05-08 21:00 54.91345 8.33182 53 ft 4 kts 302°
2026-05-08 21:00 54.91328 8.33215 51 ft 4 kts 340°
2026-05-08 21:01 54.91312 8.33220 52 ft 0 kts 10°
2026-05-08 21:03 54.91332 8.33233 55 ft 5 kts 21°
2026-05-08 21:03 54.91364 8.33247 54 ft 4 kts
2026-05-08 21:04 54.91393 8.33245 57 ft 4 kts 354°
2026-05-08 21:04 54.91417 8.33235 52 ft 3 kts 341°
2026-05-08 21:04 54.91449 8.33206 54 ft 7 kts 329°
2026-05-08 21:04 54.91489 8.33179 57 ft 6 kts 348°
2026-05-08 21:05 54.91527 8.33178 55 ft 5 kts
2026-05-08 21:05 54.91561 8.33179 58 ft 5 kts
2026-05-08 21:05 54.91635 8.33178 55 ft 12 kts 359°
2026-05-08 21:05 54.91716 8.33177 58 ft 11 kts 360°
2026-05-08 21:06 54.91788 8.33180 58 ft 10 kts
2026-05-08 21:06 54.91848 8.33215 58 ft 9 kts 22°
2026-05-08 21:06 54.91894 8.33266 55 ft 7 kts 44°
2026-05-08 21:06 54.91901 8.33321 56 ft 4 kts 117°
2026-05-08 21:07 54.91881 8.33357 55 ft 0 kts 142°
2026-05-08 21:07 54.91864 8.33379 55 ft 13 kts 143°
2026-05-08 21:07 54.91593 8.33716 52 ft 85 kts 145°
2026-05-08 21:08 54.90950 8.34513 132 ft 133 kts 142°
2026-05-08 21:08 54.90208 8.35404 871 ft 127 kts 141°
2026-05-08 21:08 54.89495 8.36245 1622 ft 125 kts 142°
2026-05-08 21:08 54.88744 8.37168 2117 ft 139 kts 141°
2026-05-08 21:09 54.87922 8.38206 2569 ft 154 kts 142°
2026-05-08 21:09 54.87010 8.39349 2975 ft 169 kts 143°
2026-05-08 21:09 54.86003 8.40602 3302 ft 189 kts 143°
2026-05-08 21:09 54.84892 8.41972 3679 ft 205 kts 144°
2026-05-08 21:10 54.83662 8.43488 4011 ft 230 kts 144°
2026-05-08 21:10 54.82280 8.45197 4451 ft 257 kts 144°
2026-05-08 21:10 54.80800 8.47024 5401 ft 262 kts 143°
2026-05-08 21:10 54.79308 8.48873 6430 ft 265 kts 142°
2026-05-08 21:11 54.77799 8.50738 7380 ft 269 kts 143°
2026-05-08 21:11 54.76262 8.52630 8305 ft 273 kts 143°
2026-05-08 21:11 54.74699 8.54546 9235 ft 278 kts 144°
2026-05-08 21:11 54.73104 8.56496 10146 ft 283 kts 144°
2026-05-08 21:12 54.71485 8.58481 10956 ft 288 kts 145°
2026-05-08 21:12 54.69837 8.60503 11783 ft 293 kts 145°
2026-05-08 21:12 54.68159 8.62559 12594 ft 298 kts 145°
2026-05-08 21:12 54.66443 8.64653 13409 ft 303 kts 145°
2026-05-08 21:13 54.64723 8.66746 14193 ft 307 kts 145°
2026-05-08 21:13 54.62955 8.68897 14890 ft 312 kts 146°
2026-05-08 21:13 54.61232 8.71253 15545 ft 321 kts 137°
2026-05-08 21:13 54.59619 8.74037 15738 ft 343 kts 135°
2026-05-08 21:14 54.57879 8.77095 15878 ft 366 kts 135°
2026-05-08 21:14 54.56058 8.80310 16262 ft 378 kts 135°
2026-05-08 21:14 54.54223 8.83551 16871 ft 384 kts 135°
2026-05-08 21:14 54.52338 8.86870 17518 ft 389 kts 135°
2026-05-08 21:15 54.50420 8.90230 18184 ft 393 kts 135°
2026-05-08 21:15 54.48507 8.93568 18783 ft 397 kts 135°
2026-05-08 21:15 54.46558 8.96960 19340 ft 400 kts 135°
2026-05-08 21:15 54.44590 9.00378 19892 ft 404 kts 135°
2026-05-08 21:16 54.42602 9.03821 20432 ft 408 kts 135°
2026-05-08 21:16 54.40594 9.07294 20966 ft 412 kts 135°
2026-05-08 21:16 54.38564 9.10801 21490 ft 416 kts 136°
2026-05-08 21:16 54.36356 9.14025 21992 ft 419 kts 145°
2026-05-08 21:17 54.33875 9.16674 22492 ft 422 kts 151°
2026-05-08 21:17 54.31321 9.19214 23003 ft 426 kts 151°
2026-05-08 21:17 54.28745 9.21774 23218 ft 429 kts 151°
2026-05-08 21:17 54.27022 9.23484 23244 ft 436 kts 151°
2026-05-08 21:18 54.24381 9.26102 23242 ft 440 kts 151°
2026-05-08 21:18 54.21725 9.28736 23243 ft 441 kts 151°
2026-05-08 21:18 54.19034 9.31405 23238 ft 442 kts 151°
2026-05-08 21:18 54.16380 9.34034 23235 ft 442 kts 151°
2026-05-08 21:19 54.13720 9.36668 23238 ft 442 kts 151°
2026-05-08 21:19 54.11064 9.39294 23234 ft 442 kts 151°
2026-05-08 21:19 54.08407 9.41915 23232 ft 442 kts 151°
2026-05-08 21:19 54.05743 9.44540 23228 ft 442 kts 151°
2026-05-08 21:20 54.03075 9.47129 23226 ft 441 kts 154°
2026-05-08 21:20 54.00268 9.49190 23221 ft 439 kts 163°
2026-05-08 21:20 53.97315 9.50468 23216 ft 437 kts 172°
2026-05-08 21:20 53.94441 9.51147 23213 ft 436 kts 174°
2026-05-08 21:21 53.91436 9.51836 23212 ft 436 kts 174°
2026-05-08 21:21 53.88430 9.52535 23213 ft 436 kts 174°
2026-05-08 21:21 53.85424 9.53238 23212 ft 436 kts 174°
2026-05-08 21:21 53.82417 9.53945 23211 ft 436 kts 174°
2026-05-08 21:22 53.79415 9.54654 23213 ft 436 kts 174°
2026-05-08 21:22 53.76412 9.55360 23212 ft 435 kts 174°
2026-05-08 21:22 53.73413 9.56061 23210 ft 435 kts 174°
2026-05-08 21:22 53.70411 9.56749 23213 ft 435 kts 175°
2026-05-08 21:23 53.67402 9.56918 23210 ft 432 kts 185°
2026-05-08 21:23 53.64437 9.56237 23209 ft 429 kts 195°
2026-05-08 21:23 53.61568 9.54735 23146 ft 424 kts 204°
2026-05-08 21:23 53.58928 9.52624 22874 ft 417 kts 209°
2026-05-08 21:24 53.56346 9.50435 22597 ft 415 kts 209°
2026-05-08 21:24 53.53774 9.48265 22321 ft 413 kts 209°
2026-05-08 21:24 53.51211 9.46109 22055 ft 411 kts 208°
2026-05-08 21:24 53.48584 9.44210 21784 ft 411 kts 200°
2026-05-08 21:25 53.45855 9.42790 21525 ft 410 kts 199°
2026-05-08 21:25 53.43132 9.41389 21259 ft 408 kts 199°
2026-05-08 21:25 53.40423 9.39994 20997 ft 407 kts 199°
2026-05-08 21:25 53.37720 9.38604 20740 ft 405 kts 199°
2026-05-08 21:26 53.35026 9.37224 20484 ft 404 kts 199°
2026-05-08 21:26 53.32344 9.35851 20232 ft 402 kts 199°
2026-05-08 21:26 53.29672 9.34486 19983 ft 401 kts 199°
2026-05-08 21:26 53.27013 9.33127 19735 ft 399 kts 199°
2026-05-08 21:27 53.24363 9.31769 19481 ft 398 kts 199°
2026-05-08 21:27 53.21734 9.30426 19185 ft 391 kts 199°
2026-05-08 21:27 53.19140 9.29104 18685 ft 387 kts 198°
2026-05-08 21:27 53.16573 9.27801 18135 ft 384 kts 198°
2026-05-08 21:28 53.14033 9.26512 17614 ft 380 kts 198°
2026-05-08 21:28 53.11514 9.25234 17103 ft 376 kts 198°
2026-05-08 21:28 53.09021 9.23971 16569 ft 373 kts 198°
2026-05-08 21:28 53.06545 9.22717 16046 ft 371 kts 198°
2026-05-08 21:29 53.04081 9.21467 15496 ft 369 kts 198°
2026-05-08 21:29 53.01628 9.20223 14963 ft 368 kts 198°
2026-05-08 21:29 52.99180 9.18986 14399 ft 367 kts 197°
2026-05-08 21:29 52.96674 9.18229 13825 ft 367 kts 184°
2026-05-08 21:30 52.94128 9.18398 13227 ft 366 kts 172°
2026-05-08 21:30 52.91673 9.19454 12634 ft 364 kts 159°
2026-05-08 21:30 52.89357 9.21125 12039 ft 362 kts 157°
2026-05-08 21:30 52.87031 9.22701 11436 ft 360 kts 159°
2026-05-08 21:31 52.84697 9.24133 10895 ft 356 kts 160°
2026-05-08 21:31 52.82411 9.25464 10758 ft 340 kts 161°
2026-05-08 21:31 52.80222 9.26724 10634 ft 326 kts 161°
2026-05-08 21:31 52.78140 9.27928 10498 ft 306 kts 161°
2026-05-08 21:32 52.76178 9.29076 10190 ft 296 kts 160°
2026-05-08 21:32 52.74266 9.30210 10037 ft 290 kts 160°
2026-05-08 21:32 52.72374 9.31341 9905 ft 288 kts 160°
2026-05-08 21:32 52.70488 9.32473 9649 ft 288 kts 160°
2026-05-08 21:33 52.68612 9.33599 9259 ft 286 kts 160°
2026-05-08 21:33 52.66744 9.34700 8859 ft 284 kts 163°
2026-05-08 21:33 52.64799 9.34980 8463 ft 282 kts 189°
2026-05-08 21:33 52.62991 9.33827 8081 ft 280 kts 215°
2026-05-08 21:34 52.61685 9.31505 7706 ft 278 kts 241°
2026-05-08 21:34 52.61027 9.28524 7461 ft 277 kts 253°
2026-05-08 21:34 52.60493 9.25485 7220 ft 277 kts 253°
2026-05-08 21:34 52.59962 9.22441 6989 ft 276 kts 253°
2026-05-08 21:35 52.59431 9.19412 6764 ft 275 kts 253°
2026-05-08 21:35 52.58895 9.16396 6532 ft 274 kts 253°
2026-05-08 21:35 52.58357 9.13391 6294 ft 273 kts 252°
2026-05-08 21:35 52.57819 9.10396 6066 ft 273 kts 252°
2026-05-08 21:36 52.57283 9.07411 5831 ft 272 kts 252°
2026-05-08 21:36 52.56455 9.04662 5615 ft 268 kts 228°
2026-05-08 21:36 52.54979 9.02871 5394 ft 265 kts 200°
2026-05-08 21:36 52.53184 9.02411 5218 ft 262 kts 173°
2026-05-08 21:37 52.51476 9.03346 5036 ft 260 kts 146°
2026-05-08 21:37 52.50221 9.05445 4853 ft 259 kts 120°
2026-05-08 21:37 52.49679 9.08244 4674 ft 259 kts 94°
2026-05-08 21:37 52.49960 9.11138 4485 ft 260 kts 67°
2026-05-08 21:38 52.50778 9.13787 4315 ft 260 kts 65°
2026-05-08 21:38 52.51309 9.16599 4136 ft 258 kts 82°
2026-05-08 21:38 52.51341 9.19522 3955 ft 256 kts 98°
2026-05-08 21:38 52.50889 9.22265 3856 ft 242 kts 112°
2026-05-08 21:39 52.50272 9.24754 3767 ft 229 kts 112°
2026-05-08 21:39 52.49690 9.27111 3682 ft 217 kts 112°
2026-05-08 21:39 52.49133 9.29358 3601 ft 208 kts 112°
2026-05-08 21:39 52.48601 9.31505 3513 ft 199 kts 112°
2026-05-08 21:40 52.48091 9.33567 3433 ft 191 kts 112°
2026-05-08 21:40 52.47604 9.35531 3374 ft 179 kts 112°
2026-05-08 21:40 52.47150 9.37358 3291 ft 166 kts 112°
2026-05-08 21:41 52.46350 9.40624 3152 ft 144 kts 107°
2026-05-08 21:41 52.46226 9.42220 3094 ft 139 kts 95°
2026-05-08 21:41 52.46156 9.43792 3032 ft 137 kts 94°
2026-05-08 21:41 52.46103 9.45313 2903 ft 132 kts 94°
2026-05-08 21:42 52.46058 9.46801 2736 ft 130 kts 94°
2026-05-08 21:42 52.46017 9.48275 2558 ft 129 kts 94°
2026-05-08 21:42 52.45977 9.49739 2389 ft 128 kts 94°
2026-05-08 21:42 52.45938 9.51197 2216 ft 128 kts 94°
2026-05-08 21:43 52.45900 9.52650 2047 ft 127 kts 94°
2026-05-08 21:43 52.45862 9.54099 1868 ft 127 kts 94°
2026-05-08 21:43 52.45824 9.55545 1689 ft 127 kts 93°
2026-05-08 21:43 52.45785 9.56997 1544 ft 129 kts 94°
2026-05-08 21:44 52.45745 9.58460 1371 ft 128 kts 93°
2026-05-08 21:44 52.45711 9.59915 1208 ft 128 kts 93°
2026-05-08 21:44 52.45669 9.61381 1027 ft 130 kts 93°
2026-05-08 21:44 52.45632 9.62874 869 ft 132 kts 92°
2026-05-08 21:45 52.45589 9.64395 694 ft 135 kts 93°
2026-05-08 21:45 52.45543 9.65954 505 ft 138 kts 92°
2026-05-08 21:45 52.45503 9.67515 303 ft 135 kts 92°
2026-05-08 21:45 52.45466 9.68982 189 ft 117 kts 92°
2026-05-08 21:46 52.45434 9.70039 188 ft 68 kts 92°
2026-05-08 21:46 52.45421 9.70518 190 ft 15 kts 92°
2026-05-08 21:46 52.45425 9.70642 190 ft 9 kts 60°
2026-05-08 21:46 52.45474 9.70668 201 ft 6 kts
2026-05-08 21:47 52.45510 9.70670 194 ft 4 kts
2026-05-08 21:47 52.45543 9.70672 191 ft 4 kts
2026-05-08 21:47 52.45597 9.70675 205 ft 13 kts
2026-05-08 21:47 52.45650 9.70591 197 ft 11 kts 282°
2026-05-08 21:48 52.45654 9.70475 191 ft 10 kts 272°
2026-05-08 21:48 52.45657 9.70360 191 ft 13 kts 272°
2026-05-08 21:48 52.45661 9.70195 191 ft 14 kts 272°
2026-05-08 21:48 52.45666 9.70037 191 ft 16 kts 273°
2026-05-08 21:49 52.45671 9.69841 202 ft 17 kts 272°
2026-05-08 21:49 52.45676 9.69648 191 ft 17 kts 272°
2026-05-08 21:49 52.45714 9.69488 206 ft 15 kts 327°
2026-05-08 21:49 52.45758 9.69353 198 ft 14 kts 272°
2026-05-08 21:50 52.45795 9.69225 195 ft 12 kts 320°
2026-05-08 21:50 52.45861 9.69149 202 ft 10 kts 338°
2026-05-08 21:50 52.45901 9.69152 191 ft 5 kts 20°
2026-05-08 21:50 52.45918 9.69186 203 ft 3 kts 73°
2026-05-08 21:51 52.45920 9.69220 197 ft 3 kts 90°
2026-05-08 21:51 52.45919 9.69246 197 ft 2 kts 93°
2026-05-08 21:51 52.45919 9.69260 194 ft 2 kts 93°
2026-05-08 21:51 52.45918 9.69274 197 ft 1 kts 93°
2026-05-08 21:52 52.45918 9.69288 191 ft 1 kts 93°
2026-05-08 21:52 52.45918 9.69298 191 ft 0 kts 93°